| time (UTC) | temp C | wind direction | speed KPH | gust KPH | rain 1hr cm | rain 24hr cm | rain mn cm | humidity % | barometer mb |
| 20260506143007 | 21 | 126 | 3.2 | 3.2 | 0.00 | 0.00 | 0.00 | 62 | 1008.8 |
| 20260506142504 | 21 | 227 | 6.4 | 9.7 | 0.00 | 0.00 | 0.00 | 62 | 1008.9 |
| 20260506142001 | 21 | 245 | 4.8 | 11.3 | 0.00 | 0.00 | 0.00 | 63 | 1008.6 |
| 20260506141459 | 21 | 226 | 4.8 | 16.1 | 0.00 | 0.00 | 0.00 | 63 | 1008.6 |
| 20260506140958 | 21 | 136 | 3.2 | 9.7 | 0.00 | 0.00 | 0.00 | 63 | 1008.9 |
| 20260506140454 | 21 | 264 | 3.2 | 16.1 | 0.00 | 0.00 | 0.00 | 63 | 1008.9 |
| 20260506135951 | 20 | 242 | 12.9 | 14.5 | 0.00 | 0.00 | 0.00 | 64 | 1008.9 |
| 20260506135448 | 20 | 207 | 17.7 | 22.5 | 0.00 | 0.00 | 0.00 | 64 | 1008.8 |
| 20260506134944 | 20 | 210 | 11.3 | 20.9 | 0.00 | 0.00 | 0.00 | 64 | 1008.9 |
| 20260506134440 | 20 | 239 | 8.0 | 17.7 | 0.00 | 0.00 | 0.00 | 65 | 1009.0 |
| 20260506133937 | 20 | 250 | 14.5 | 22.5 | 0.00 | 0.00 | 0.00 | 64 | 1009.0 |
| 20260506133434 | 20 | 250 | 8.0 | 19.3 | 0.00 | 0.00 | 0.00 | 65 | 1009.0 |
| 20260506132931 | 20 | 233 | 9.7 | 19.3 | 0.00 | 0.00 | 0.00 | 65 | 1009.1 |
| 20260506132428 | 20 | 255 | 25.7 | 33.8 | 0.00 | 0.00 | 0.00 | 65 | 1009.3 |
| 20260506131926 | 20 | 248 | 20.9 | 20.9 | 0.00 | 0.00 | 0.00 | 66 | 1009.0 |
| 20260506131422 | 20 | 247 | 6.4 | 20.9 | 0.00 | 0.00 | 0.00 | 67 | 1009.1 |
| 20260506130919 | 20 | 241 | 12.9 | 22.5 | 0.00 | 0.00 | 0.00 | 67 | 1008.7 |
| 20260506130415 | 20 | 237 | 14.5 | 19.3 | 0.00 | 0.00 | 0.00 | 67 | 1008.8 |
| 20260506125914 | 20 | 245 | 4.8 | 19.3 | 0.00 | 0.00 | 0.00 | 67 | 1008.9 |
| 20260506125412 | 20 | 212 | 6.4 | 27.4 | 0.00 | 0.00 | 0.00 | 67 | 1008.8 |
| 20260506124910 | 20 | 227 | 12.9 | 17.7 | 0.00 | 0.00 | 0.00 | 68 | 1008.8 |
| 20260506124407 | 19 | 202 | 9.7 | 33.8 | 0.00 | 0.00 | 0.00 | 69 | 1009.0 |
| 20260506123904 | 19 | 274 | 6.4 | 14.5 | 0.00 | 0.00 | 0.00 | 69 | 1008.9 |
| 20260506123402 | 19 | 258 | 12.9 | 20.9 | 0.00 | 0.00 | 0.00 | 70 | 1008.9 |
| 20260506122859 | 19 | 156 | 4.8 | 17.7 | 0.00 | 0.00 | 0.00 | 70 | 1008.8 |
| 20260506122356 | 18 | 193 | 3.2 | 16.1 | 0.00 | 0.00 | 0.00 | 70 | 1009.1 |
| 20260506121854 | 18 | 110 | 8.0 | 27.4 | 0.00 | 0.00 | 0.00 | 71 | 1008.9 |
| 20260506121351 | 18 | 241 | 6.4 | 11.3 | 0.00 | 0.00 | 0.00 | 71 | 1009.3 |
| 20260506120848 | 18 | 179 | 4.8 | 37.0 | 0.00 | 0.00 | 0.00 | 71 | 1009.3 |
| 20260506120345 | 18 | 221 | 16.1 | 24.1 | 0.00 | 0.00 | 0.00 | 71 | 1009.1 |
| 20260506115843 | 18 | 205 | 6.4 | 24.1 | 0.00 | 0.00 | 0.00 | 71 | 1009.3 |
| 20260506115341 | 18 | 141 | 8.0 | 22.5 | 0.00 | 0.00 | 0.00 | 71 | 1009.3 |
| 20260506114839 | 18 | 232 | 8.0 | 17.7 | 0.00 | 0.00 | 0.00 | 73 | 1009.3 |
| 20260506114336 | 18 | 192 | 9.7 | 19.3 | 0.00 | 0.00 | 0.00 | 73 | 1009.3 |
| 20260506113835 | 18 | 221 | 6.4 | 29.0 | 0.00 | 0.00 | 0.00 | 73 | 1009.4 |
| 20260506113332 | 18 | 189 | 4.8 | 19.3 | 0.00 | 0.00 | 0.00 | 73 | 1009.1 |
| 20260506112828 | 18 | 240 | 11.3 | 17.7 | 0.00 | 0.00 | 0.00 | 74 | 1009.3 |
| 20260506112326 | 18 | 243 | 17.7 | 19.3 | 0.00 | 0.00 | 0.00 | 74 | 1009.4 |
| 20260506111823 | 18 | 235 | 4.8 | 9.7 | 0.00 | 0.00 | 0.00 | 74 | 1009.3 |
| 20260506111321 | 18 | 250 | 6.4 | 14.5 | 0.00 | 0.00 | 0.00 | 75 | 1009.3 |
| 20260506110818 | 17 | 246 | 6.4 | 12.9 | 0.00 | 0.00 | 0.00 | 76 | 1009.3 |
| 20260506110315 | 17 | 261 | 8.0 | 14.5 | 0.00 | 0.00 | 0.00 | 78 | 1009.3 |
| 20260506105812 | 16 | 58 | 1.6 | 8.0 | 0.00 | 0.00 | 0.00 | 79 | 1009.1 |
| 20260506105309 | 16 | 167 | 4.8 | 8.0 | 0.00 | 0.00 | 0.00 | 79 | 1009.3 |
| 20260506104806 | 17 | 275 | 3.2 | 8.0 | 0.00 | 0.00 | 0.00 | 78 | 1009.2 |
| 20260506104304 | 17 | 225 | 3.2 | 6.4 | 0.00 | 0.00 | 0.00 | 78 | 1009.2 |
| 20260506103801 | 16 | 217 | 0.0 | 6.4 | 0.00 | 0.00 | 0.00 | 79 | 1009.1 |
| 20260506103259 | 16 | 172 | 3.2 | 6.4 | 0.00 | 0.00 | 0.00 | 80 | 1009.3 |
| 20260506102756 | 16 | 131 | 3.2 | 6.4 | 0.00 | 0.00 | 0.00 | 81 | 1009.5 |
| 20260506102254 | 16 | 225 | 4.8 | 4.8 | 0.00 | 0.00 | 0.00 | 81 | 1009.0 |
| 20260506101751 | 16 | 193 | 3.2 | 8.0 | 0.00 | 0.00 | 0.00 | 81 | 1008.9 |
| 20260506101247 | 16 | 248 | 3.2 | 4.8 | 0.00 | 0.00 | 0.00 | 81 | 1009.1 |
| 20260506100745 | 16 | 192 | 3.2 | 9.7 | 0.00 | 0.00 | 0.00 | 82 | 1008.9 |
| 20260506100243 | 15 | 197 | 3.2 | 6.4 | 0.00 | 0.00 | 0.00 | 82 | 1009.0 |
| 20260506095741 | 15 | 252 | 4.8 | 8.0 | 0.00 | 0.00 | 0.00 | 82 | 1009.1 |
| 20260506095238 | 15 | 294 | 1.6 | 6.4 | 0.00 | 0.00 | 0.00 | 82 | 1009.2 |
| 20260506094734 | 15 | 32 | 4.8 | 9.7 | 0.00 | 0.00 | 0.00 | 82 | 1009.1 |
| 20260506094232 | 15 | 162 | 4.8 | 4.8 | 0.00 | 0.00 | 0.00 | 83 | 1009.1 |
| 20260506093731 | 15 | 156 | 6.4 | 9.7 | 0.00 | 0.00 | 0.00 | 82 | 1009.0 |
| 20260506093228 | 15 | 139 | 4.8 | 8.0 | 0.00 | 0.00 | 0.00 | 83 | 1008.9 |
| 20260506092725 | 15 | 178 | 4.8 | 6.4 | 0.00 | 0.00 | 0.00 | 82 | 1009.1 |
| 20260506092223 | 15 | 275 | 3.2 | 8.0 | 0.00 | 0.00 | 0.00 | 82 | 1009.3 |
| 20260506091720 | 15 | 201 | 4.8 | 8.0 | 0.00 | 0.00 | 0.00 | 82 | 1009.1 |
| 20260506091217 | 15 | 97 | 0.0 | 11.3 | 0.00 | 0.00 | 0.00 | 82 | 1009.1 |
| 20260506090715 | 15 | 247 | 1.6 | 8.0 | 0.00 | 0.00 | 0.00 | 81 | 1009.1 |
| 20260506090212 | 15 | 236 | 1.6 | 6.4 | 0.00 | 0.00 | 0.00 | 81 | 1009.3 |
| 20260506085709 | 15 | 260 | 3.2 | 8.0 | 0.00 | 0.00 | 0.00 | 81 | 1009.5 |
| 20260506085205 | 15 | 241 | 1.6 | 6.4 | 0.00 | 0.00 | 0.00 | 81 | 1009.4 |
| 20260506084702 | 15 | 106 | 3.2 | 6.4 | 0.00 | 0.00 | 0.00 | 80 | 1009.4 |
| 20260506084158 | 15 | 136 | 0.0 | 8.0 | 0.00 | 0.00 | 0.00 | 80 | 1009.2 |
| 20260506083655 | 16 | 213 | 3.2 | 4.8 | 0.00 | 0.00 | 0.00 | 80 | 1009.4 |
| 20260506083153 | 16 | 228 | 0.0 | 6.4 | 0.00 | 0.00 | 0.00 | 80 | 1009.2 |
| 20260506082650 | 16 | 296 | 3.2 | 6.4 | 0.00 | 0.00 | 0.00 | 79 | 1009.2 |
| 20260506082145 | 16 | 231 | 4.8 | 6.4 | 0.00 | 0.00 | 0.00 | 79 | 1009.3 |
| 20260506081643 | 16 | 268 | 0.0 | 6.4 | 0.00 | 0.00 | 0.00 | 79 | 1009.4 |
| 20260506081141 | 16 | 223 | 4.8 | 6.4 | 0.00 | 0.00 | 0.00 | 79 | 1009.4 |
| 20260506080638 | 16 | 184 | 4.8 | 6.4 | 0.00 | 0.00 | 0.00 | 79 | 1009.5 |
| 20260506080135 | 16 | 219 | 4.8 | 6.4 | 0.00 | 0.00 | 0.00 | 79 | 1009.4 |
| 20260506073119 | 16 | 97 | 3.2 | 4.8 | 0.00 | 0.00 | 0.00 | 77 | 1009.5 |
| 20260506072615 | 16 | 241 | 1.6 | 4.8 | 0.00 | 0.00 | 0.00 | 77 | 1009.5 |
| 20260506072113 | 16 | 194 | 3.2 | 3.2 | 0.00 | 0.00 | 0.00 | 77 | 1009.6 |
| 20260506071611 | 16 | 191 | 0.0 | 6.4 | 0.00 | 0.00 | 0.00 | 77 | 1009.6 |
| 20260506071108 | 16 | 239 | 3.2 | 6.4 | 0.00 | 0.00 | 0.00 | 77 | 1009.6 |
| 20260506070605 | 16 | 345 | 3.2 | 6.4 | 0.00 | 0.00 | 0.00 | 77 | 1009.6 |
| 20260506062039 | 15 | 154 | 3.2 | 8.0 | 0.00 | 0.00 | 0.00 | 75 | 1009.5 |
| 20260506061535 | 16 | 148 | 4.8 | 8.0 | 0.00 | 0.00 | 0.00 | 75 | 1009.6 |
| 20260506061033 | 16 | 125 | 3.2 | 9.7 | 0.00 | 0.00 | 0.00 | 74 | 1009.5 |
| 20260506060531 | 16 | 203 | 1.6 | 8.0 | 0.00 | 0.00 | 0.00 | 73 | 1009.5 |
| 20260506051000 | 20 | 240 | 8.0 | 11.3 | 0.00 | 0.00 | 0.00 | 65 | 1009.9 |
| 20260506050458 | 20 | 227 | 6.4 | 19.3 | 0.00 | 0.00 | 0.00 | 64 | 1010.1 |
| 20260506044948 | 20 | 228 | 14.5 | 20.9 | 0.00 | 0.00 | 0.00 | 64 | 1010.1 |
| 20260506044447 | 20 | 227 | 8.0 | 25.7 | 0.00 | 0.00 | 0.00 | 63 | 1010.1 |
| 20260506043943 | 20 | 238 | 6.4 | 17.7 | 0.00 | 0.00 | 0.00 | 63 | 1010.2 |
| 20260506043440 | 20 | 240 | 9.7 | 19.3 | 0.00 | 0.00 | 0.00 | 63 | 1010.3 |
| 20260506042938 | 20 | 235 | 9.7 | 11.3 | 0.00 | 0.00 | 0.00 | 63 | 1010.4 |
| 20260506042437 | 20 | 237 | 17.7 | 17.7 | 0.00 | 0.00 | 0.00 | 62 | 1010.0 |
| 20260506041935 | 20 | 246 | 6.4 | 24.1 | 0.00 | 0.00 | 0.00 | 62 | 1010.1 |
| 20260506041432 | 20 | 231 | 3.2 | 17.7 | 0.00 | 0.00 | 0.00 | 62 | 1010.1 |
| 20260506040929 | 20 | 153 | 3.2 | 14.5 | 0.00 | 0.00 | 0.00 | 62 | 1010.0 |
| 20260506040427 | 20 | 250 | 6.4 | 17.7 | 0.00 | 0.00 | 0.00 | 61 | 1010.1 |
| 20260506035923 | 20 | 199 | 4.8 | 16.1 | 0.00 | 0.00 | 0.00 | 61 | 1010.0 |
| 20260506035420 | 20 | 239 | 17.7 | 24.1 | 0.00 | 0.00 | 0.00 | 60 | 1010.2 |
| 20260506034917 | 20 | 238 | 19.3 | 22.5 | 0.00 | 0.00 | 0.00 | 60 | 1010.0 |
| 20260506034414 | 20 | 228 | 14.5 | 19.3 | 0.00 | 0.00 | 0.00 | 60 | 1010.0 |
| 20260506033911 | 20 | 183 | 6.4 | 16.1 | 0.00 | 0.00 | 0.00 | 60 | 1010.0 |
| 20260506033408 | 20 | 211 | 4.8 | 11.3 | 0.00 | 0.00 | 0.00 | 59 | 1010.1 |
| 20260506032905 | 20 | 243 | 9.7 | 20.9 | 0.00 | 0.00 | 0.00 | 59 | 1009.9 |
| 20260506032402 | 20 | 236 | 12.9 | 25.7 | 0.00 | 0.00 | 0.00 | 59 | 1010.0 |
| 20260506031859 | 20 | 224 | 11.3 | 22.5 | 0.00 | 0.00 | 0.00 | 58 | 1009.7 |
| 20260506031356 | 20 | 227 | 16.1 | 25.7 | 0.00 | 0.00 | 0.00 | 58 | 1009.8 |
| 20260506030854 | 20 | 232 | 6.4 | 19.3 | 0.00 | 0.00 | 0.00 | 58 | 1009.9 |
| 20260506030352 | 20 | 254 | 8.0 | 40.2 | 0.00 | 0.00 | 0.00 | 58 | 1009.7 |
| 20260506025848 | 20 | 236 | 12.9 | 22.5 | 0.00 | 0.00 | 0.00 | 58 | 1009.9 |
| 20260506025344 | 20 | 207 | 8.0 | 14.5 | 0.00 | 0.00 | 0.00 | 58 | 1009.8 |
| 20260506024841 | 20 | 239 | 16.1 | 19.3 | 0.00 | 0.00 | 0.00 | 58 | 1010.0 |
| 20260506024339 | 21 | 238 | 6.4 | 33.8 | 0.00 | 0.00 | 0.00 | 57 | 1010.1 |
| 20260506023835 | 20 | 236 | 9.7 | 29.0 | 0.00 | 0.00 | 0.00 | 57 | 1010.1 |
| 20260506023331 | 21 | 218 | 9.7 | 43.5 | 0.00 | 0.00 | 0.00 | 57 | 1010.1 |
| 20260506022828 | 21 | 327 | 3.2 | 24.1 | 0.00 | 0.00 | 0.00 | 57 | 1010.0 |
| 20260506022326 | 21 | 240 | 8.0 | 14.5 | 0.00 | 0.00 | 0.00 | 57 | 1009.8 |
| 20260506021824 | 21 | 217 | 1.6 | 19.3 | 0.00 | 0.00 | 0.00 | 57 | 1009.8 |
| 20260506021321 | 21 | 222 | 17.7 | 24.1 | 0.00 | 0.00 | 0.00 | 57 | 1010.1 |
| 20260506020817 | 21 | 204 | 4.8 | 17.7 | 0.00 | 0.00 | 0.00 | 57 | 1010.0 |
| 20260506020315 | 21 | 235 | 12.9 | 14.5 | 0.00 | 0.00 | 0.00 | 57 | 1009.8 |
| 20260506015813 | 21 | 139 | 3.2 | 27.4 | 0.00 | 0.00 | 0.00 | 57 | 1010.0 |
| 20260506015310 | 20 | 252 | 3.2 | 11.3 | 0.00 | 0.00 | 0.00 | 57 | 1009.9 |
| 20260506014807 | 20 | 252 | 12.9 | 20.9 | 0.00 | 0.00 | 0.00 | 57 | 1010.0 |
| 20260506014304 | 20 | 231 | 6.4 | 14.5 | 0.00 | 0.00 | 0.00 | 57 | 1009.7 |
| 20260506013800 | 21 | 195 | 8.0 | 19.3 | 0.00 | 0.00 | 0.00 | 56 | 1009.8 |
| 20260506013257 | 21 | 320 | 0.0 | 8.0 | 0.00 | 0.00 | 0.00 | 56 | 1009.7 |
| 20260506012754 | 21 | 267 | 8.0 | 9.7 | 0.00 | 0.00 | 0.00 | 57 | 1009.6 |
| 20260506012251 | 20 | 191 | 4.8 | 17.7 | 0.00 | 0.00 | 0.00 | 57 | 1009.7 |
| 20260506011748 | 20 | 246 | 6.4 | 19.3 | 0.00 | 0.00 | 0.00 | 57 | 1009.7 |
| 20260506011244 | 20 | 231 | 12.9 | 17.7 | 0.00 | 0.00 | 0.00 | 57 | 1009.6 |
| 20260506010743 | 20 | 215 | 8.0 | 19.3 | 0.00 | 0.00 | 0.00 | 57 | 1009.7 |
| 20260506010239 | 20 | 235 | 8.0 | 12.9 | 0.00 | 0.00 | 0.00 | 57 | 1009.3 |
| 20260506005737 | 20 | 240 | 1.6 | 6.4 | 0.00 | 0.00 | 0.00 | 57 | 1009.2 |
| 20260506005234 | 20 | 144 | 3.2 | 8.0 | 0.00 | 0.00 | 0.00 | 57 | 1009.2 |
| 20260506004729 | 20 | 252 | 6.4 | 11.3 | 0.00 | 0.00 | 0.00 | 57 | 1009.4 |
| 20260506004227 | 20 | 58 | 3.2 | 6.4 | 0.00 | 0.00 | 0.00 | 57 | 1009.2 |
| 20260506003723 | 20 | 238 | 4.8 | 9.7 | 0.00 | 0.00 | 0.00 | 57 | 1009.3 |
| 20260506003220 | 20 | 161 | 6.4 | 9.7 | 0.00 | 0.00 | 0.00 | 57 | 1009.3 |
| 20260506002716 | 21 | 188 | 6.4 | 8.0 | 0.00 | 0.00 | 0.00 | 56 | 1009.0 |
| 20260506002212 | 21 | 171 | 4.8 | 11.3 | 0.00 | 0.00 | 0.00 | 56 | 1008.9 |
| 20260506001708 | 21 | 197 | 6.4 | 11.3 | 0.00 | 0.00 | 0.00 | 56 | 1009.1 |
| 20260506001206 | 21 | 258 | 3.2 | 14.5 | 0.00 | 0.00 | 0.00 | 56 | 1008.9 |
| 20260506000702 | 20 | 151 | 4.8 | 11.3 | 0.00 | 0.00 | 0.00 | 57 | 1008.7 |
| 20260506000200 | 20 | 99 | 4.8 | 11.3 | 0.00 | 0.00 | 0.00 | 57 | 1008.6 |
| 20260505235657 | 21 | 185 | 3.2 | 8.0 | 0.00 | 0.00 | 0.00 | 56 | 1008.7 |
| 20260505235154 | 21 | 195 | 4.8 | 8.0 | 0.00 | 0.00 | 0.00 | 55 | 1008.7 |
| 20260505234645 | 21 | 264 | 1.6 | 11.3 | 0.00 | 0.00 | 0.00 | 55 | 1008.7 |
| 20260505234142 | 21 | 115 | 8.0 | 11.3 | 0.00 | 0.00 | 0.00 | 55 | 1008.5 |
| 20260505233639 | 21 | 175 | 8.0 | 8.0 | 0.00 | 0.00 | 0.00 | 54 | 1008.3 |
| 20260505233137 | 22 | 150 | 6.4 | 11.3 | 0.00 | 0.00 | 0.00 | 54 | 1008.3 |
| 20260505232634 | 22 | 160 | 4.8 | 12.9 | 0.00 | 0.00 | 0.00 | 54 | 1008.3 |
| 20260505232132 | 22 | 207 | 1.6 | 9.7 | 0.00 | 0.00 | 0.00 | 54 | 1007.8 |
| 20260505231628 | 22 | 190 | 6.4 | 11.3 | 0.00 | 0.00 | 0.00 | 54 | 1008.0 |
| 20260505231127 | 22 | 199 | 6.4 | 6.4 | 0.00 | 0.00 | 0.00 | 53 | 1008.0 |
| 20260505230625 | 22 | 216 | 0.0 | 8.0 | 0.00 | 0.00 | 0.00 | 53 | 1008.0 |
| 20260505230120 | 22 | 147 | 8.0 | 8.0 | 0.00 | 0.00 | 0.00 | 52 | 1007.6 |
| 20260505225617 | 23 | 224 | 4.8 | 17.7 | 0.00 | 0.00 | 0.00 | 50 | 1007.7 |
| 20260505225113 | 23 | 253 | 3.2 | 9.7 | 0.00 | 0.00 | 0.00 | 49 | 1007.7 |
| 20260505224610 | 23 | 96 | 1.6 | 8.0 | 0.00 | 0.00 | 0.00 | 49 | 1007.6 |
| 20260505224108 | 23 | 242 | 6.4 | 8.0 | 0.00 | 0.00 | 0.00 | 48 | 1008.0 |
| 20260505223605 | 24 | 145 | 3.2 | 11.3 | 0.00 | 0.00 | 0.00 | 47 | 1007.6 |
| 20260505223101 | 24 | 162 | 8.0 | 14.5 | 0.00 | 0.00 | 0.00 | 47 | 1007.6 |
| 20260505222558 | 24 | 160 | 3.2 | 16.1 | 0.00 | 0.00 | 0.00 | 46 | 1007.7 |
| 20260505222054 | 25 | 325 | 3.2 | 6.4 | 0.00 | 0.00 | 0.00 | 44 | 1007.7 |
| 20260505221551 | 25 | 205 | 4.8 | 8.0 | 0.00 | 0.00 | 0.00 | 43 | 1007.7 |
| 20260505221047 | 26 | 159 | 9.7 | 14.5 | 0.00 | 0.00 | 0.00 | 40 | 1007.6 |
| 20260505220545 | 26 | 258 | 1.6 | 11.3 | 0.00 | 0.00 | 0.00 | 41 | 1007.4 |
| 20260505220043 | 26 | 207 | 3.2 | 6.4 | 0.00 | 0.00 | 0.00 | 42 | 1007.1 |
| 20260505215541 | 26 | 262 | 3.2 | 9.7 | 0.00 | 0.00 | 0.00 | 41 | 1007.3 |
| 20260505215038 | 27 | 162 | 3.2 | 9.7 | 0.00 | 0.00 | 0.00 | 38 | 1007.2 |
| 20260505214536 | 27 | 137 | 8.0 | 8.0 | 0.00 | 0.00 | 0.00 | 37 | 1007.3 |
| 20260505214033 | 27 | 107 | 4.8 | 8.0 | 0.00 | 0.00 | 0.00 | 38 | 1007.2 |
| 20260505213531 | 27 | 251 | 3.2 | 11.3 | 0.00 | 0.00 | 0.00 | 38 | 1007.2 |
| 20260505213026 | 26 | 104 | 1.6 | 8.0 | 0.00 | 0.00 | 0.00 | 40 | 1007.1 |
| 20260505212522 | 26 | 123 | 0.0 | 6.4 | 0.00 | 0.00 | 0.00 | 42 | 1007.3 |
| 20260505212020 | 25 | 143 | 8.0 | 11.3 | 0.00 | 0.00 | 0.00 | 44 | 1007.3 |
| 20260505211517 | 25 | 154 | 4.8 | 9.7 | 0.00 | 0.00 | 0.00 | 43 | 1007.3 |
| 20260505211014 | 26 | 119 | 3.2 | 8.0 | 0.00 | 0.00 | 0.00 | 41 | 1007.2 |
| 20260505210510 | 26 | 103 | 11.3 | 14.5 | 0.00 | 0.00 | 0.00 | 42 | 1007.0 |
| 20260505210007 | 26 | 131 | 4.8 | 9.7 | 0.00 | 0.00 | 0.00 | 41 | 1007.0 |
| 20260505205506 | 26 | 156 | 6.4 | 16.1 | 0.00 | 0.00 | 0.00 | 42 | 1007.0 |
| 20260505205002 | 26 | 146 | 8.0 | 17.7 | 0.00 | 0.00 | 0.00 | 40 | 1007.1 |
| 20260505204500 | 28 | 186 | 6.4 | 8.0 | 0.00 | 0.00 | 0.00 | 32 | 1007.2 |
| 20260505203957 | 28 | 270 | 3.2 | 14.5 | 0.00 | 0.00 | 0.00 | 36 | 1007.2 |
| 20260505203453 | 26 | 146 | 3.2 | 17.7 | 0.00 | 0.00 | 0.00 | 41 | 1006.8 |
| 20260505202950 | 27 | 200 | 3.2 | 6.4 | 0.00 | 0.00 | 0.00 | 40 | 1007.1 |
| 20260505202447 | 27 | 82 | 0.0 | 4.8 | 0.00 | 0.00 | 0.00 | 41 | 1007.3 |
| 20260505201942 | 26 | 165 | 8.0 | 12.9 | 0.00 | 0.00 | 0.00 | 42 | 1007.2 |
| 20260505201439 | 26 | 193 | 4.8 | 6.4 | 0.00 | 0.00 | 0.00 | 41 | 1007.2 |
| 20260505200937 | 26 | 207 | 4.8 | 9.7 | 0.00 | 0.00 | 0.00 | 42 | 1007.4 |
| 20260505200435 | 26 | 162 | 9.7 | 12.9 | 0.00 | 0.00 | 0.00 | 41 | 1007.3 |
| 20260505195931 | 26 | 169 | 6.4 | 8.0 | 0.00 | 0.00 | 0.00 | 42 | 1007.3 |
| 20260505195428 | 27 | 75 | 3.2 | 6.4 | 0.00 | 0.00 | 0.00 | 41 | 1007.2 |
| 20260505194925 | 26 | 143 | 6.4 | 9.7 | 0.00 | 0.00 | 0.00 | 43 | 1007.6 |
| 20260505194423 | 26 | 163 | 3.2 | 8.0 | 0.00 | 0.00 | 0.00 | 44 | 1007.8 |
| 20260505193922 | 26 | 204 | 6.4 | 19.3 | 0.00 | 0.00 | 0.00 | 44 | 1007.5 |
| 20260505193420 | 26 | 107 | 17.7 | 22.5 | 0.00 | 0.00 | 0.00 | 44 | 1007.8 |
| 20260505192918 | 26 | 284 | 3.2 | 17.7 | 0.00 | 0.00 | 0.00 | 44 | 1008.0 |
| 20260505192416 | 26 | 230 | 1.6 | 4.8 | 0.00 | 0.00 | 0.00 | 44 | 1007.9 |
| 20260505191913 | 26 | 170 | 8.0 | 12.9 | 0.00 | 0.00 | 0.00 | 44 | 1007.9 |
| 20260505191412 | 26 | 193 | 6.4 | 11.3 | 0.00 | 0.00 | 0.00 | 45 | 1008.0 |
| 20260505190908 | 25 | 172 | 3.2 | 25.7 | 0.00 | 0.00 | 0.00 | 47 | 1008.2 |
| 20260505190403 | 25 | 128 | 6.4 | 19.3 | 0.00 | 0.00 | 0.00 | 47 | 1008.6 |
| 20260505185859 | 25 | 191 | 1.6 | 9.7 | 0.00 | 0.00 | 0.00 | 46 | 1008.5 |
| 20260505185356 | 25 | 146 | 6.4 | 14.5 | 0.00 | 0.00 | 0.00 | 47 | 1008.6 |
| 20260505184853 | 25 | 236 | 6.4 | 14.5 | 0.00 | 0.00 | 0.00 | 45 | 1008.9 |
| 20260505184350 | 25 | 108 | 4.8 | 19.3 | 0.00 | 0.00 | 0.00 | 47 | 1008.6 |
| 20260505183847 | 25 | 232 | 8.0 | 9.7 | 0.00 | 0.00 | 0.00 | 47 | 1008.7 |
| 20260505183343 | 25 | 170 | 4.8 | 11.3 | 0.00 | 0.00 | 0.00 | 47 | 1008.7 |
| 20260505182840 | 25 | 89 | 3.2 | 14.5 | 0.00 | 0.00 | 0.00 | 48 | 1008.8 |
| 20260505182337 | 25 | 220 | 6.4 | 16.1 | 0.00 | 0.00 | 0.00 | 48 | 1008.9 |
| 20260505181834 | 25 | 153 | 9.7 | 16.1 | 0.00 | 0.00 | 0.00 | 47 | 1009.1 |
| 20260505181331 | 25 | 130 | 6.4 | 11.3 | 0.00 | 0.00 | 0.00 | 48 | 1009.1 |
| 20260505180827 | 25 | 163 | 4.8 | 9.7 | 0.00 | 0.00 | 0.00 | 47 | 1008.9 |
| 20260505180324 | 24 | 345 | 3.2 | 12.9 | 0.00 | 0.00 | 0.00 | 50 | 1008.9 |
| 20260505175820 | 24 | 102 | 9.7 | 16.1 | 0.00 | 0.00 | 0.00 | 51 | 1008.9 |
| 20260505175317 | 23 | 131 | 12.9 | 20.9 | 0.00 | 0.00 | 0.00 | 51 | 1009.2 |
| 20260505174814 | 25 | 211 | 4.8 | 12.9 | 0.00 | 0.00 | 0.00 | 49 | 1009.4 |
| 20260505174311 | 25 | 191 | 3.2 | 11.3 | 0.00 | 0.00 | 0.00 | 49 | 1009.0 |
| 20260505173807 | 25 | 131 | 8.0 | 12.9 | 0.00 | 0.00 | 0.00 | 49 | 1009.3 |
| 20260505173303 | 25 | 85 | 6.4 | 12.9 | 0.00 | 0.00 | 0.00 | 49 | 1009.2 |
| 20260505172801 | 25 | 235 | 8.0 | 12.9 | 0.00 | 0.00 | 0.00 | 48 | 1009.3 |
| 20260505172258 | 25 | 152 | 3.2 | 16.1 | 0.00 | 0.00 | 0.00 | 48 | 1009.3 |
| 20260505171753 | 25 | 252 | 1.6 | 16.1 | 0.00 | 0.00 | 0.00 | 47 | 1009.4 |
| 20260505171250 | 25 | 242 | 4.8 | 9.7 | 0.00 | 0.00 | 0.00 | 48 | 1009.1 |
| 20260505170746 | 25 | 141 | 6.4 | 11.3 | 0.00 | 0.00 | 0.00 | 47 | 1009.3 |
| 20260505170244 | 25 | 193 | 4.8 | 19.3 | 0.00 | 0.00 | 0.00 | 47 | 1009.1 |
| 20260505165743 | 26 | 177 | 3.2 | 9.7 | 0.00 | 0.00 | 0.00 | 44 | 1009.3 |
| 20260505165240 | 26 | 209 | 9.7 | 17.7 | 0.00 | 0.00 | 0.00 | 42 | 1009.3 |
| 20260505164735 | 26 | 100 | 1.6 | 9.7 | 0.00 | 0.00 | 0.00 | 42 | 1009.2 |
| 20260505164233 | 26 | 152 | 1.6 | 9.7 | 0.00 | 0.00 | 0.00 | 42 | 1009.5 |
| 20260505163731 | 25 | 215 | 3.2 | 20.9 | 0.00 | 0.00 | 0.00 | 43 | 1009.5 |
| 20260505163229 | 25 | 102 | 3.2 | 12.9 | 0.00 | 0.00 | 0.00 | 44 | 1009.4 |
| 20260505162726 | 25 | 169 | 12.9 | 17.7 | 0.00 | 0.00 | 0.00 | 46 | 1009.6 |
| 20260505162223 | 25 | 225 | 4.8 | 11.3 | 0.00 | 0.00 | 0.00 | 45 | 1009.7 |
| 20260505161720 | 25 | 207 | 6.4 | 17.7 | 0.00 | 0.00 | 0.00 | 45 | 1009.8 |
| 20260505161218 | 25 | 151 | 3.2 | 9.7 | 0.00 | 0.00 | 0.00 | 47 | 1009.7 |
| 20260505160715 | 25 | 85 | 3.2 | 11.3 | 0.00 | 0.00 | 0.00 | 48 | 1009.9 |
| 20260505160212 | 25 | 96 | 4.8 | 6.4 | 0.00 | 0.00 | 0.00 | 48 | 1010.0 |
| 20260505153152 | 23 | 244 | 6.4 | 16.1 | 0.00 | 0.00 | 0.00 | 47 | 1010.0 |
| 20260505152648 | 23 | 248 | 0.0 | 9.7 | 0.00 | 0.00 | 0.00 | 47 | 1010.2 |
| 20260505152144 | 23 | 284 | 8.0 | 12.9 | 0.00 | 0.00 | 0.00 | 48 | 1010.2 |
| 20260505151639 | 23 | 232 | 9.7 | 14.5 | 0.00 | 0.00 | 0.00 | 48 | 1010.3 |
| 20260505151137 | 22 | 239 | 3.2 | 17.7 | 0.00 | 0.00 | 0.00 | 49 | 1010.4 |
| 20260505150633 | 23 | 226 | 3.2 | 8.0 | 0.00 | 0.00 | 0.00 | 49 | 1010.4 |
| 20260505150130 | 22 | 242 | 0.0 | 12.9 | 0.00 | 0.00 | 0.00 | 50 | 1010.6 |